Weather History for Deer Park, WA

Change the Weather History Date:

Friday, November 15, 2013

  Actual Average Record
Temperature  
Mean Temperature 35 °F 34 °F  
Max Temperature 38 °F 42 °F 55 °F (2001)
Min Temperature 32 °F 27 °F 11 °F (2011)
Degree Days  
Heating Degree Days 30 31  
Month to date heating degree days 415 430  
Since 1 July heating degree days 1395 1498  
Cooling Degree Days 0 0  
Month to date cooling degree days 0 0  
Year to date cooling degree days 310 187  
Moisture  
Dew Point 33 °F    
Average Humidity 91    
Maximum Humidity 100    
Minimum Humidity 82    
Precipitation  
Precipitation 0.45 in 0.11 in 0.45 in (2013)
Month to date precipitation 1.83 1.55  
Year to date precipitation 16.58 17.61  
Sea Level Pressure  
Sea Level Pressure 29.63 in    
Wind  
Wind Speed 9 mph (South)    
Max Wind Speed 17 mph    
Max Gust Speed 89 mph    
Visibility 5 miles    
Events Rain , Snow    
T = Trace of Precipitation, MM = Missing Value Source: NWS Daily Summary

Daily Weather History Graph

Daily Weather History Graph

Search for Another Location

Airport:

Trip Planner

Search our weather history database for the weather conditions in past years. The results will help you decide how hot, cold, wet, or windy it might be!

Date:

Astronomy

Nov. 15, 2013 Rise Set
Actual Time 6:56 AM PST 4:11 PM PST
Civil Twilight 6:22 AM PST 4:45 PM PST
Nautical Twilight 5:44 AM PST 5:23 PM PST
Astronomical Twilight 5:08 AM PST 5:59 PM PST
Moon 3:17 PM PST (11/15) 4:50 AM PST (11/15)
Length of Visible Light 10h 23m
Length of Day
9h 15m
Waxing Gibbous, 97% of the Moon is Illuminated
Nov 15
Waxing Gibbous
Nov 17
Full
Nov 25
Last Quarter
Dec 2
New
Dec 9
First Quarter

Hourly Weather History & Observations

Time (PST) Temp. Windchill Dew Point Humidity Pressure Visibility Wind Dir Wind Speed Gust Speed Precip Events Conditions
12:53 AM 37.0 °F 31.6 °F 35.1 °F 93% 29.92 in 8.0 mi South 6.9 mph - N/A   Overcast
1:30 AM 37.4 °F 32.1 °F 35.6 °F 93% 29.88 in 4.0 mi South 6.9 mph - N/A   Overcast
1:53 AM 37.0 °F 31.0 °F 35.1 °F 93% 29.91 in 2.5 mi South 8.1 mph - N/A   Overcast
2:53 AM 36.0 °F 29.0 °F 35.1 °F 97% 29.88 in 1.8 mi South 9.2 mph - N/A   Overcast
3:18 AM 35.6 °F 28.6 °F 35.6 °F 100% 29.84 in 2.5 mi South 9.2 mph - N/A   Overcast
3:50 AM 35.6 °F 29.2 °F 33.8 °F 93% 29.82 in 3.0 mi SSE 8.1 mph - N/A   Overcast
3:53 AM 36.0 °F 29.6 °F 34.0 °F 93% 29.86 in 3.0 mi SSE 8.1 mph - N/A   Overcast
4:16 AM 35.6 °F 29.9 °F 33.8 °F 93% 29.82 in 3.0 mi South 6.9 mph - N/A   Overcast
4:53 AM 36.0 °F 30.3 °F 35.1 °F 97% 29.86 in 4.0 mi SSE 6.9 mph - N/A   Overcast
5:17 AM 35.6 °F 29.2 °F 35.6 °F 100% 29.80 in 4.0 mi South 8.1 mph - N/A   Overcast
5:23 AM 35.6 °F 29.2 °F 33.8 °F 93% 29.80 in 6.0 mi SSW 8.1 mph - N/A   Overcast
5:26 AM 35.6 °F 29.2 °F 33.8 °F 93% 29.80 in 7.0 mi SSW 8.1 mph - N/A   Overcast
5:38 AM 35.6 °F 30.7 °F 33.8 °F 93% 29.79 in 7.0 mi SSW 5.8 mph - N/A   Overcast
5:53 AM 36.0 °F 28.5 °F 34.0 °F 93% 29.83 in 6.0 mi South 10.4 mph - N/A   Overcast
6:14 AM 35.6 °F 28.6 °F 33.8 °F 93% 29.78 in 5.0 mi South 9.2 mph - N/A   Overcast
6:53 AM 34.0 °F 26.0 °F 33.1 °F 96% 29.83 in 6.0 mi South 10.4 mph - N/A   Overcast
7:50 AM 33.8 °F 27.0 °F 33.8 °F 100% 29.77 in 7.0 mi South 8.1 mph - N/A   Overcast
7:53 AM 34.0 °F 27.2 °F 33.1 °F 96% 29.82 in 6.0 mi South 8.1 mph - N/A   Overcast
8:33 AM 33.8 °F 25.8 °F 30.2 °F 87% 29.76 in 10.0 mi SSW 10.4 mph - N/A   Overcast
8:53 AM 35.1 °F 28.6 °F 30.9 °F 85% 29.80 in 10.0 mi South 8.1 mph - N/A   Overcast
9:53 AM 36.0 °F 29.0 °F 32.0 °F 86% 29.77 in 10.0 mi South 9.2 mph - N/A   Overcast
10:24 AM 37.4 °F 30.3 °F 32.0 °F 81% 29.70 in 10.0 mi SSW 10.4 mph - N/A   Overcast
10:53 AM 37.0 °F 29.8 °F 32.0 °F 82% 29.73 in 10.0 mi South 10.4 mph - N/A   Overcast
11:53 AM 37.0 °F 28.5 °F 32.0 °F 82% 29.69 in 10.0 mi SSW 13.8 mph 19.6 mph 0.00 in   Overcast
12:13 PM 37.4 °F 28.2 °F 32.0 °F 81% 29.64 in 10.0 mi SSW 16.1 mph 21.9 mph N/A   Overcast
12:53 PM 37.0 °F 29.8 °F 33.1 °F 86% 29.65 in 10.0 mi South 10.4 mph - N/A   Overcast
1:53 PM 37.0 °F 29.3 °F 33.1 °F 86% 29.62 in 7.0 mi SSW 11.5 mph - 0.01 in   Overcast
2:14 PM 35.6 °F 28.0 °F 32.0 °F 87% 29.58 in 2.5 mi SSW 10.4 mph - 0.03 in Rain Light Rain
2:17 PM 35.6 °F 27.1 °F 33.8 °F 93% 29.59 in 3.0 mi SSW 12.7 mph - 0.04 in Rain Light Rain
2:53 PM 35.1 °F 25.9 °F 33.1 °F 92% 29.62 in 7.0 mi SSW 13.8 mph - 0.06 in   Overcast
3:13 PM 33.8 °F 25.3 °F 33.8 °F 100% 29.57 in 5.0 mi SSW 11.5 mph - 0.01 in Snow Light Snow
3:37 PM 33.8 °F 25.8 °F 32.0 °F 93% 29.56 in 2.0 mi South 10.4 mph - 0.03 in Snow Light Snow
3:51 PM 33.8 °F 25.8 °F 32.0 °F 93% 29.56 in 2.0 mi SSW 10.4 mph - 0.04 in Snow Light Snow
3:53 PM 33.1 °F 24.9 °F 32.0 °F 96% 29.60 in 2.0 mi SSW 10.4 mph - 0.05 in Snow Light Snow
4:00 PM 33.8 °F 25.8 °F 32.0 °F 93% 29.55 in 1.5 mi SSW 10.4 mph - 0.01 in Snow Light Snow
4:53 PM 33.1 °F 25.5 °F 30.9 °F 92% 29.57 in 2.0 mi South 9.2 mph - 0.06 in Snow Light Snow
5:17 PM 33.8 °F 27.7 °F 30.2 °F 87% 29.52 in 2.5 mi South 6.9 mph 88.6 mph 0.01 in Snow Light Snow
5:29 PM 32.0 °F 25.6 °F 30.2 °F 93% 29.52 in 1.5 mi SSE 6.9 mph - 0.02 in Snow Light Snow
5:38 PM 32.0 °F 25.6 °F 30.2 °F 93% 29.51 in 1.2 mi SSE 6.9 mph - 0.02 in Snow Light Snow
5:53 PM 32.0 °F - 30.9 °F 96% 29.55 in 0.8 mi North - - 0.04 in Snow Light Snow
6:00 PM 33.8 °F - 30.2 °F 87% 29.50 in 1.0 mi North - - 0.00 in Snow Light Snow
6:16 PM 33.8 °F - 30.2 °F 87% 29.49 in 1.8 mi North - - 0.01 in Snow Light Snow
6:24 PM 33.8 °F - 32.0 °F 93% 29.48 in 2.5 mi North - - 0.01 in Snow Light Snow
6:53 PM 33.1 °F 28.7 °F 32.0 °F 96% 29.51 in 1.8 mi SSE 4.6 mph - 0.03 in Snow Light Snow
7:11 PM 32.0 °F 26.4 °F 30.2 °F 93% 29.45 in 1.5 mi SSE 5.8 mph - 0.01 in Snow Light Snow
7:28 PM 33.8 °F 30.8 °F 32.0 °F 93% 29.44 in 2.5 mi SE 3.5 mph - 0.02 in Snow Light Snow
7:39 PM 33.8 °F 29.6 °F 32.0 °F 93% 29.44 in 4.0 mi SE 4.6 mph - 0.02 in Snow Light Snow
7:53 PM 33.1 °F 27.7 °F 32.0 °F 96% 29.47 in 4.0 mi SSE 5.8 mph - 0.03 in   Overcast
8:07 PM 33.8 °F 28.6 °F 32.0 °F 93% 29.42 in 6.0 mi SSE 5.8 mph - 0.02 in Rain Light Rain
8:37 PM 35.6 °F 27.5 °F 33.8 °F 93% 29.40 in 7.0 mi South 11.5 mph - 0.04 in Rain Light Rain
8:53 PM 35.1 °F 27.4 °F 33.1 °F 92% 29.43 in 7.0 mi South 10.4 mph - 0.05 in Rain Light Rain
9:15 PM 35.6 °F 28.0 °F 33.8 °F 93% 29.37 in 9.0 mi SSW 10.4 mph 25.3 mph 0.02 in Rain Light Rain
9:53 PM 35.1 °F 26.9 °F 32.0 °F 89% 29.39 in 10.0 mi South 11.5 mph - 0.04 in   Overcast
10:53 PM 34.0 °F 26.0 °F 33.1 °F 96% 29.35 in 6.0 mi South 10.4 mph - 0.03 in Rain Light Rain
11:34 PM 35.6 °F 25.5 °F 33.8 °F 93% 29.29 in 7.0 mi SSW 17.3 mph 23.0 mph 0.03 in Rain Light Rain
11:53 PM 35.1 °F 24.8 °F 33.1 °F 92% 29.31 in 7.0 mi SSW 17.3 mph - 0.05 in Rain Light Rain